Location: Ammerl�gen
(47.2167°N, 9.6000°E)
Time: 10:30:15
(UTC+00:00)

Cosmos 1825 - Pass Details

Date: 21 April 2021
Orbit: 502 x 506 km, 82.5° (Epoch: 06 May)

Event Time Altitude Azimuth Distance (km) Brightness Sun altitude
Rises 19:06:59 0° 350° (N) 2,617 6.4 -8.3°
Reaches altitude 10° 19:09:07 10° 350° (N) 1,728 5.4 -8.6°
Maximum altitude 19:12:54 86° 265° (W) 513 2.2 -9.2°
Drops below altitude 10° 19:16:40 10° 174° (S) 1,714 4.5 -9.7°
Enters shadow 19:18:30 - 173° (S) 2,480 5.3 -10.0°
